Regional Weather Roundup
Issued by NWS Wakefield, VA

Home | Current Version | Previous Version | Text Only | Print | Product List | Glossary Off
Versions: 1 2 3 4 5 6 7 8 9 10 11 12 13 14 15 16 17 18 19 20 21 22 23 24 25 26 27

000
ASUS41 KAKQ 170416
RWRAKQ

REGIONAL WEATHER ROUNDUP
NATIONAL WEATHER SERVICE WAKEFIELD VA
1100 PM EST SAT DEC 16 2017

Note: "fair" indicates few or no clouds below 12,000 feet with no
significant weather and/or obstructions to visibility. * = Denotes
station may not report precipitation (e.g., rain,snow,etc.),
thunder or fog.

VAZ042-051-052>054-056-170500-
NORTHERN VIRGINIA

CITY           SKY/WX    TMP DP  RH WIND       PRES   REMARKS
WASH NATIONAL  CLEAR     37  28  70 SW3       30.21R
DULLES         CLEAR     32  24  72 S6        30.19R
FORT BELVOIR   CLEAR     28  23  83 CALM      30.20R
QUANTICO       CLEAR     31  28  89 NW3       30.22R
FREDERICKSBRG* CLEAR     31  26  80 CALM      30.20R
STAFFORD*      CLEAR     37  26  63 SW3       30.24R
WARRENTON      CLEAR     24  19  82 CALM      30.18R
CULPEPER*      CLEAR     26  21  80 CALM      30.20R
MANASSAS*      CLEAR     25  22  88 CALM      30.20R
LEESBURG*      CLEAR     30  27  86 CALM      30.20R
WINCHESTER     CLEAR     28  21  74 CALM      30.16R
FRONT ROYAL*   CLEAR     30  23  74 CALM      30.16R
LURAY*         CLEAR     34  27  75 S3        30.17R
$$

VAZ048-049-060>072-079>083-170500-
CENTRAL AND SOUTH CENTRAL VIRGINIA

CITY           SKY/WX    TMP DP  RH WIND       PRES   REMARKS
RICHMOND       CLEAR     34  24  67 S5        30.22R
CHESTERFIELD*  NOT AVBL
PETERSBURG*    CLEAR     36  23  60 S3        30.23S
HANOVER        CLEAR     41  24  51 SW6       30.22R
TAPPAHANNOCK*  CLEAR     35  26  68 S6        30.22R
QUINTON*       FAIR      31  26  81 S3        30.22S
CHARLOTTSVILLE CLEAR     38  25  59 S7        30.17R
GORDONSVILLE*  CLEAR     31  25  78 SW3       30.18S
ORANGE*        CLEAR     30  23  74 CALM      30.19R
LOUISA*        CLEAR     37  23  57 SW5       30.23S
BUMPASS*       FAIR      34  22  61 CALM      30.20R
FARMVILLE*     CLOUDY    37  28  68 SW6       30.21S
CREWE*         FAIR      33  25  72 CALM      30.21F
FORT PICKETT*  NOT AVBL
CHASE CITY*    FAIR      32  26  78 CALM      30.24R
CLARKSVILLE*   FAIR      32  27  80 CALM      30.24S
SOUTH HILL*    CLOUDY    34  26  73 SW5       30.30S
LAWRENCEVILLE* FAIR      32  24  72 SW3       30.23F
EMPORIA*       CLOUDY    30  25  80 CALM      30.26F
$$

VAZ088>098-170500-
SOUTHEAST VIRGINIA

CITY           SKY/WX    TMP DP  RH WIND       PRES   REMARKS
NORFOLK        CLEAR     37  25  61 S7        30.25R
VIRGINIA BEACH CLEAR     34  23  64 SW7       30.25R
NORFOLK NAVAL  CLEAR     41  25  53 SW9       30.25S
WEST POINT*    CLEAR    N/A N/A N/A CALM      30.25S
SALUDA*        FAIR      40  26  58 SW6       30.22S
NEWPORT NEWS   CLEAR     37  26  64 SW6       30.24S
LANGLEY AFB    CLEAR     39  26  60 SW5       30.24R
FORT EUSTIS    CLEAR     40  26  58 SW3       30.21S
WILLIAMSBURG*  CLEAR     43  27  52 CALM      30.24F
HR EXEC AP*    FAIR      26  23  88 CALM      30.26R
FRANKLIN*      CLEAR     36  24  64 SW3       30.26S
US460-WAKEFLD  CLEAR     34  25  69 CALM      30.24S
$$

VAZ020-022-025-037-045-170500-
WEST CENTRAL AND SOUTHWEST VIRGINIA

CITY           SKY/WX    TMP DP  RH WIND       PRES   REMARKS
STAUNTON*      CLOUDY    31  22  68 CALM      30.19S
WAYNESBORO*    CLOUDY    33  23  65 SE3       30.17S
HOT SPRINGS VA CLOUDY    33  20  58 W16       30.12R WCI  23
LYNCHBURG      CLOUDY    33  23  66 SW5       30.20S
DANVILLE       PTCLDY    34  24  67 S3        30.25R
SOUTH BOSTON*  FAIR      36  23  58 CALM      30.24S
MARTINSVILLE   PTCLDY    35  23  62 SW3       30.26R
ROANOKE        CLOUDY    41  24  51 W8        30.23R
BLACKSBURG     CLOUDY    31  24  77 W3        30.24R
DUBLIN*        CLOUDY    35  26  69 SW5       30.24R
MARION*        CLOUDY    32  24  72 W10       30.26R WCI  24
HILLSVILLE*    CLOUDY    35  22  58 NW3       30.20R
RICHLANDS*     FAIR      36  25  62 SW9       30.22S
WISE*          CLOUDY    34  28  80 SW5       30.23R
ABINGDON*      CLOUDY    32  27  81 CALM      30.26R
$$

MDZ021>025-VAZ099-100-170500-
SOUTHERN MARYLAND AND THE DELMARVA PENINSULA

CITY           SKY/WX    TMP DP  RH WIND       PRES   REMARKS
PATUXENT RIVER CLEAR     40  25  55 SW10      30.20R
BAY BRIDGE APT CLEAR     37  27  65 SW3       30.20R
LEONARDTOWN    CLEAR     37  27  65 SW6       30.22R
DOVER          CLEAR     33  29  85 S5        30.19S
GEORGETOWN     CLEAR     31  25  78 CALM      30.21S
EASTON         CLEAR     34  26  72 CALM      30.23R
CAMBRIDGE      CLEAR     30  27  86 CALM      30.21R
SALISBURY      CLEAR     31  27  85 CALM      30.21S
OCEAN CITY     CLEAR     36  28  73 SW7       30.22S
WALLOPS ISLAND CLEAR     40  28  62 SW8       30.23R
ACCOMACK*      CLEAR     40  30  66 SW8       30.23R
$$

NCZ012>017-030>032-170500-
NORTH CENTRAL AND EASTERN NORTH CAROLINA

CITY           SKY/WX    TMP DP  RH WIND       PRES   REMARKS
ROANOKE RAPIDS FAIR      32  27  80 SW3       30.26S
RALEIGH        PTCLDY    33  24  69 SW3       30.27R
ELIZABETH CITY CLEAR     34  30  85 SW7       30.27R
AHOSKIE*       CLOUDY    28  25  90 CALM      30.27S
EDENTON*       NOT AVBL
CURRITUCK*     CLEAR     37  29  72 SW5       30.28R
KILL DEVIL HLS CLEAR     38  31  78 CALM      30.26S
MANTEO         CLEAR     38  32  77 SW6       30.29R
CAPE HATTERAS  CLEAR     35  32  88 W3        30.28R
TARBORO*       NOT AVBL
GOLDSBORO      CLEAR     31  26  82 CALM      30.27S
WASHINGTON     CLOUDY    33  27  78 CALM      30.29S
GREENVILLE     CLOUDY    32  28  86 CALM      30.28F
NEW BERN       CLOUDY    29  28  96 CALM      30.30S
WILMINGTON     CLOUDY    34  32  92 CALM      30.32R
$$

VAZ048-170500-
ELSEWHERE

CITY           SKY/WX    TMP DP  RH WIND       PRES   REMARKS
HARRISBURG PA  PTCLDY    27  25  92 CALM      30.16R
BALTIMORE      CLEAR     30  24  78 CALM      30.19R
ANNAPOLIS      CLEAR     33  28  81 CALM      30.20R
ANDREWS AFB    CLEAR     31  22  71 CALM      30.19R
PHILADELPHIA   CLOUDY    38  27  64 S7        30.20R
HENDERSON NC   PTCLDY    33  22  64 SW3       30.24S
GREENSBORO     PTCLDY    36  24  62 SW6       30.25R
ROCKY MOUNT    CLOUDY    32  27  81 S5        30.27S
$$

VAZ100-170500-
MARINE

STATION/POSITION TIME  TEMP    WIND        PRES    WAVE   SWELL
                       AIR SEA DIR/SP/G            HT/PER HT/PER
                 (UTC) (F)     (DEG/KT/KT) (MB)    (FT/S) (FT/S)
BRANDYWINE LGT   0342   41     240/ 18/ 19 1022.9R
CAPE MAY NJ      0348   41 40  250/ 13/ 16 1022.3R
LEWES DE         0348   38 41  230/  5/  8 1022.8R
15NM E FENWICK I 0350   47 51  240/ 17/ 21 1023.4R   3/ 5
OCEAN-CITY-INLET 0348   40 43  260/  5/  6 1023.7R
WACHAPREAGUE VA  0348   37 38  210/  2/  2 1023.6R
THOMAS POINT MD  0400   39 44  280/  5/  6   N/A
GOOSES REEF MD   0400   44 45  230/ 12/ 14 1023.0    1/ 3
COVE POINT MD    0348   42     260/ 13/ 15 1023.2R
SOLOMONS ISLAND  0348   41 44  250/  5/  8 1022.6R
BISHOPS HEAD MD  0348   41 36  220/  8/  9 1023.1R
PINEY POINT MD   0348          240/  5/  8   N/A
POTOMAC MD       0400   43 45  230/ 14/ 16 1022.3    1/ 2
CAMBRIDGE MD     0342   35 40              1023.3R
LEWISETTA VA     0348   40 39  240/  8/  9 1023.0R
RAPPAHANNOCK LGT 0348          210/ 14/ 15 1024.2R
STINGRAY PT      0400   43 45  250/ 12/ 16 1023.6    1/ 2
YORK RVR RNG VA  0348   43     250/  8/  9 1024.4R
YORKTOWN VA      0348   42 45  240/  8/ 11 1023.5R
JAMESTOWN VA     0400      43  220/  6/  8   N/A     0
DOMINION TERM VA 0348   42     230/  7/  8 1024.3R
KIPTOPEKE VA     0348      44  240/  9/ 13   N/A
CAPE HENRY VA    0348   41     220/  8/ 12   N/A
WILLOUBY STN VA  0348          220/ 10/ 12 1023.8R
S CRANEY ISL VA  0348   40     220/  5/  7 1024.1R
CAPE HENRY BUOY  0400      52                N/A     2/ 3
1ST LANDING BUOY 0400   43 47  240/ 10/ 12 1024.3    1/ 2
CAPE CHARLES BUO 0351      50                N/A     2/ 3
64NM E OF VA BCH 0350   50 59  280/ 16/ 19 1024.4S   4/ 5
DUCK PIER NC     0348   42 52  240/  7/  9 1024.5R
44100 DUCK FRF   0315      54                N/A     2/ 2
44056 DUCK FRF   0400      54                N/A     1/10
OREGON INLET NC  0336   43 47  230/  6/  9 1025.2R
HATTERAS NC      0348   45 52  260/  7/  9 1025.0R
DIAMOND SHLS NC  0350   53 72  290/ 12/ 16 1025.4R   3/ 7   2/ 7
CAPE LOOKOUT NC  0400          280/  7/  8 1025.9S
$$




USA.gov is the U.S. government's official web portal to all federal, state and local government web resources and services.